GFSSW_sfc_temp_000.txt.gz
Temp
63 63 62 62 63 63 63 63 63 64 64 64 64 63 63 63 62 78 89 99 97 82 82 105 107 105 107 103 106 98 83 85 86 87 89 98 93 99 101 94 95 96 90 92 95
62 62 62 62 62 63 63 63 63 63 63 63 64 63 63 63 77 89 96 86 82 81 101 102 102 105 101 102 105 99 88 90 96 98 78 77 92 95 93 92 92 91 94 94 95
62 62 62 62 62 62 62 62 62 62 62 62 63 63 63 65 83 95 91 84 82 85 105 109 108 105 100 104 103 100 92 98 98 100 88 84 87 81 73 86 91 86 88 91 91
61 61 61 61 62 62 62 62 61 61 62 63 63 64 63 76 80 98 83 83 82 102 104 104 104 99 97 97 103 95 100 100 100 96 95 95 95 81 75 75 95 93 92 91 90
60 60 60 60 61 61 61 61 60 60 62 63 64 64 69 82 89 98 82 84 99 100 101 102 100 99 95 100 101 97 98 100 100 100 99 97 91 88 84 92 96 95 93 91 91
60 60 60 60 60 60 60 60 59 60 62 63 64 62 76 80 110 104 104 100 105 102 103 105 103 106 102 100 98 101 100 99 101 99 98 93 91 91 90 94 92 92 91 92 92
59 59 59 59 60 60 60 59 59 60 62 63 64 73 83 90 111 111 108 103 107 106 103 108 109 105 104 99 104 101 93 97 97 97 93 97 86 84 91 93 90 90 91 93 93
59 59 59 59 59 59 58 58 58 61 62 63 63 78 82 107 111 108 109 106 109 111 109 112 112 106 103 106 100 94 95 85 94 92 89 91 77 87 93 91 88 90 92 92 92
59 59 59 58 58 58 57 57 59 62 63 64 71 80 85 95 101 107 109 103 106 109 110 112 108 100 102 94 89 91 82 84 85 91 90 88 81 89 94 92 89 91 92 92 91
58 58 58 58 57 57 56 57 66 63 67 80 83 81 91 94 103 106 110 108 103 104 102 100 98 93 94 91 78 83 82 85 84 90 89 86 83 89 94 93 90 91 91 91 91
58 58 57 57 57 56 61 85 79 76 82 86 91 93 99 105 109 103 108 105 103 99 89 95 88 84 91 93 94 93 89 84 88 89 86 85 84 88 93 93 90 91 90 91 92
58 57 57 57 56 56 60 84 93 97 84 96 96 98 104 107 95 100 108 96 94 87 93 89 84 94 98 96 94 93 89 87 92 95 91 83 82 89 92 92 92 91 90 92 93
58 57 57 56 56 64 83 91 104 102 84 89 97 97 99 103 95 96 102 98 92 88 89 85 90 97 96 93 90 91 88 88 87 92 93 89 80 75 89 94 94 95 94 94 93
57 57 56 54 66 83 87 102 104 103 75 83 91 96 100 100 92 105 104 98 94 87 91 89 97 94 92 91 92 84 94 92 91 86 77 89 71 74 82 87 91 93 93 94 93
57 57 55 54 66 78 95 101 102 95 59 92 94 108 102 93 95 97 106 99 90 90 91 87 91 91 88 91 95 87 96 92 91 86 84 83 76 75 86 81 87 92 94 95 96
57 56 55 71 68 80 91 97 94 72 62 87 95 92 91 93 94 99 97 102 100 93 94 92 100 97 94 97 96 97 92 92 90 86 73 81 80 74 73 81 85 86 94 95 97
55 54 55 66 76 96 91 87 70 63 86 83 87 92 89 87 89 92 89 86 84 78 80 89 91 98 99 91 96 94 86 73 70 71 70 85 80 80 86 91 89 82 80 96 98
53 53 63 74 80 79 85 76 61 75 79 92 92 91 85 89 88 90 86 82 89 89 84 79 77 91 97 93 89 88 86 75 63 67 73 84 73 80 94 97 92 92 96 98 96
53 78 85 87 84 86 80 66 69 76 87 87 91 85 84 89 89 89 86 84 89 91 81 80 80 96 97 98 96 86 81 92 80 83 75 79 83 91 94 94 95 96 98 96 97
60 72 82 96 92 84 75 62 77 87 89 91 80 87 80 85 84 86 84 90 89 94 96 89 78 93 95 97 97 91 94 79 81 66 64 76 77 78 83 87 92 93 95 97 98
65 75 96 99 91 79 69 73 80 90 92 86 83 83 86 85 87 86 85 91 94 94 97 94 88 86 93 87 85 88 84 86 86 80 70 68 71 87 86 90 91 94 96 96 98
71 70 95 96 75 78 74 79 76 88 92 90 89 87 84 86 86 86 85 89 98 97 89 95 90 80 85 95 97 94 87 86 75 72 78 75 75 94 93 94 94 94 96 97 98
64 76 95 92 70 74 80 81 85 86 87 87 86 89 90 85 80 89 90 99 99 96 91 93 85 76 79 88 93 87 89 89 88 85 73 72 74 92 94 93 95 94 95 94 94
62 69 82 85 84 78 78 78 80 90 88 90 88 91 87 85 89 85 89 96 100 98 82 91 88 80 75 80 87 81 86 89 87 76 77 78 79 85 89 90 90 93 94 94 92
66 69 78 72 78 79 80 80 78 80 89 89 84 85 85 79 84 84 90 93 98 85 94 93 80 84 86 88 89 87 86 86 82 83 76 80 80 82 83 89 90 92 93 93 93
64 62 71 69 73 76 72 76 77 82 84 82 81 86 87 81 83 79 82 88 89 93 91 92 80 83 80 87 87 84 88 88 87 86 85 86 84 86 92 91 91 92 92 91 92
71 67 65 64 72 75 76 78 79 83 86 87 85 82 81 79 86 89 90 90 90 88 87 85 82 77 72 83 83 77 85 87 88 89 87 79 86 89 87 89 89 90 91 90 91

GFSSW_sfc_temp_003.txt.gz
Temp
62 62 62 62 62 63 63 63 63 63 63 63 63 63 63 62 62 66 75 87 87 84 80 95 98 98 98 94 95 89 66 66 64 70 75 89 85 91 94 86 87 88 83 85 89
62 62 62 62 62 62 62 62 62 62 62 62 63 63 63 63 66 76 87 85 86 81 94 93 92 96 90 91 94 80 71 78 77 83 78 82 84 81 84 83 80 82 87 89 89
62 61 61 61 62 62 62 62 62 62 62 62 62 63 63 62 68 82 83 87 84 82 95 97 97 95 89 93 93 84 80 87 84 90 84 80 84 82 79 79 81 78 82 86 85
61 61 61 61 61 61 62 62 61 61 61 62 63 63 63 64 67 91 82 83 84 91 94 94 92 86 84 84 94 87 94 91 89 88 83 79 79 81 82 81 87 85 86 85 83
60 60 60 60 61 61 61 61 60 60 61 62 63 64 63 68 77 93 82 83 90 92 92 91 88 87 83 87 91 88 90 93 93 90 86 86 81 78 81 86 89 88 87 84 82
60 60 60 60 60 60 60 60 59 60 60 63 64 63 62 66 96 96 93 89 95 90 91 93 91 94 90 90 89 93 92 91 91 88 89 85 79 81 82 88 88 86 84 84 84
59 59 59 59 59 60 59 59 59 60 60 63 64 68 71 75 100 93 93 88 92 93 90 97 98 91 91 86 96 94 84 90 88 88 85 87 78 78 85 88 85 85 85 86 85
59 59 59 59 59 59 58 58 59 60 61 63 64 66 64 95 94 96 95 91 95 95 96 98 100 93 88 91 91 84 81 71 82 85 86 80 68 81 86 84 82 85 86 86 84
59 59 59 59 58 58 57 57 60 62 62 64 61 62 70 95 90 96 98 94 93 93 95 106 98 88 88 78 73 76 67 71 76 84 85 77 71 82 86 84 81 83 85 85 84
58 58 58 58 57 57 56 58 64 62 64 73 77 68 77 85 93 98 98 99 92 92 92 90 84 77 76 70 62 68 71 74 74 82 84 77 73 81 84 83 82 83 83 83 83
58 58 57 57 57 56 55 63 66 65 72 74 75 80 88 93 98 95 99 94 91 84 75 82 72 67 75 79 82 81 79 75 81 87 80 76 76 80 83 83 81 79 80 81 82
58 57 57 57 56 55 53 64 78 84 74 88 89 88 94 95 88 93 98 86 82 74 80 75 69 81 87 86 84 82 79 73 80 87 79 75 76 81 81 82 83 82 81 82 82
58 57 57 56 55 57 68 76 89 88 72 80 87 87 89 93 88 87 90 88 80 76 78 73 78 89 86 84 83 79 75 77 75 82 84 77 68 67 80 80 84 85 85 84 82
57 57 56 55 59 68 73 86 91 90 60 71 78 85 90 92 84 98 96 88 82 77 80 78 87 86 84 82 83 68 84 85 83 75 63 75 55 61 70 74 82 83 83 84 83
57 57 55 53 54 63 79 81 85 79 46 82 82 98 90 84 86 88 98 89 79 81 78 76 81 82 81 84 86 78 86 82 80 71 66 70 61 66 69 67 77 81 84 86 84
57 56 55 61 55 63 73 78 77 57 51 78 87 84 82 85 86 91 90 91 90 83 83 81 91 87 85 90 89 89 80 76 75 66 55 65 63 58 65 71 81 84 86 87 86
55 54 53 59 61 77 72 72 55 52 77 76 79 84 81 77 82 84 81 78 73 66 67 79 82 88 91 79 84 80 65 55 52 53 54 67 65 62 77 82 80 81 80 83 88
54 53 54 62 60 64 66 61 49 68 68 80 80 83 77 81 79 82 79 74 80 77 67 65 65 81 90 80 75 73 68 56 50 51 59 72 60 67 83 84 82 87 84 85 87
53 63 70 71 69 71 62 53 56 66 77 78 80 76 75 82 80 79 76 76 79 80 68 67 69 87 89 89 84 74 65 74 62 62 57 62 68 76 81 80 82 85 84 82 83
51 58 68 82 77 70 58 54 66 77 79 79 69 75 71 77 77 75 75 82 81 85 85 75 63 81 87 89 88 77 80 63 60 50 50 61 63 62 69 73 79 78 80 81 84
54 62 81 85 80 64 55 61 71 79 80 73 71 73 76 75 78 75 76 83 86 85 87 81 69 75 82 75 73 71 68 66 65 60 53 52 57 70 73 76 77 79 82 81 86
59 57 83 84 62 64 61 68 68 78 83 80 80 78 77 77 74 75 76 82 91 89 79 83 68 67 75 82 87 79 73 68 56 56 58 57 61 80 78 80 79 80 82 81 82
50 61 80 82 59 62 69 73 77 77 77 78 78 82 82 74 66 75 78 91 91 87 81 82 73 63 64 77 83 78 77 72 69 64 57 55 59 77 79 79 79 79 79 80 82
53 55 67 69 73 67 65 67 71 82 79 81 80 80 78 72 75 71 77 88 92 90 82 80 69 64 59 68 77 72 78 75 69 58 59 61 66 70 74 75 78 79 80 80 80
56 59 64 57 62 60 64 67 68 70 80 80 77 76 74 68 71 71 79 79 86 85 83 81 63 67 71 78 79 80 79 78 69 67 61 66 68 69 73 77 78 82 83 82 80
56 55 59 55 60 62 63 65 68 73 75 71 69 80 77 69 68 65 72 72 73 76 80 74 64 66 65 76 79 76 82 79 80 78 73 72 70 74 83 78 77 81 80 79 77
60 63 56 54 58 59 64 64 73 76 77 74 73 71 73 73 78 75 77 79 75 72 71 71 66 61 57 69 71 63 72 75 77 82 78 69 71 73 73 75 74 76 80 79 78

GFSSW_sfc_temp_006.txt.gz
Temp
62 62 62 62 62 63 63 63 63 63 63 63 63 63 63 62 62 62 70 83 83 80 82 90 90 90 89 84 86 82 63 63 69 69 71 82 78 83 86 78 82 84 79 80 83
62 62 62 62 62 62 62 62 63 63 62 62 62 62 63 62 61 67 81 82 82 80 88 86 86 87 80 84 86 79 67 70 78 76 75 82 82 81 78 77 77 78 83 84 84
61 61 61 61 62 62 62 62 62 62 62 62 62 62 63 61 65 77 81 84 82 83 92 90 89 86 78 82 83 80 76 83 81 83 82 79 79 81 77 72 76 75 78 81 80
61 61 61 61 61 61 61 61 61 61 61 61 62 63 63 59 65 87 81 80 81 88 88 87 85 77 75 75 86 77 87 85 81 84 79 79 79 78 77 77 83 83 82 81 79
60 60 60 60 60 61 61 61 60 60 61 61 62 63 61 63 72 88 82 81 85 87 86 85 80 78 75 78 87 84 85 87 86 82 80 81 77 77 78 82 85 85 84 80 80
60 59 59 59 60 60 60 60 59 60 61 61 63 63 60 62 87 92 88 85 88 85 85 85 85 85 81 81 81 88 85 84 84 80 80 78 77 79 79 83 83 83 80 81 81
59 59 59 59 59 60 59 59 59 60 60 61 63 66 65 72 90 89 84 80 87 86 83 88 90 82 82 80 87 89 79 82 81 80 79 83 74 74 81 83 80 80 81 81 81
59 59 59 59 59 59 58 58 58 60 61 61 63 61 62 85 84 86 85 84 88 82 86 90 88 83 80 84 85 79 77 67 76 81 81 76 64 77 82 80 77 80 81 82 80
59 59 59 59 58 58 57 57 59 63 62 63 57 58 64 85 82 87 88 87 85 82 85 98 87 80 81 73 67 69 64 68 72 79 78 72 66 78 82 80 77 79 81 81 79
58 58 58 58 57 57 56 57 61 61 63 68 72 62 72 80 85 91 89 91 84 83 85 82 77 71 68 66 58 63 64 73 70 77 76 71 69 77 80 79 78 79 80 80 80
58 58 58 57 57 56 54 53 65 63 65 69 73 75 82 85 91 90 92 88 82 77 69 75 68 64 70 72 74 73 70 72 77 80 73 71 71 75 78 79 78 77 77 79 79
58 58 57 57 56 55 53 54 68 68 63 77 78 79 86 82 79 86 89 80 75 69 71 69 64 74 79 78 76 72 71 71 75 80 73 70 70 76 78 78 79 78 77 79 76
58 57 57 56 55 53 57 66 75 69 60 72 79 80 82 84 80 81 84 79 74 70 70 65 72 82 79 76 74 70 70 72 74 79 75 71 64 68 76 80 81 81 81 81 77
57 57 56 54 57 54 62 72 72 72 54 65 69 78 81 83 76 91 89 82 75 72 71 69 81 79 76 75 75 64 79 81 77 74 60 72 53 62 72 73 76 78 79 80 78
57 56 55 54 47 50 69 68 72 69 43 74 74 88 80 76 77 81 92 81 74 74 71 69 75 75 74 77 80 74 80 78 76 72 63 64 56 67 66 64 69 75 79 81 79
56 56 55 52 49 52 61 61 65 54 45 69 80 73 75 76 79 84 84 82 83 74 72 74 82 78 79 84 82 85 77 69 65 60 52 63 60 56 62 71 75 76 81 82 81
55 54 53 56 48 59 59 63 51 45 68 69 68 74 71 70 75 77 76 72 70 59 61 69 76 81 84 72 78 75 62 52 52 50 51 58 61 66 70 79 77 77 80 83 82
53 52 51 54 52 55 54 56 43 60 62 72 72 75 67 71 71 76 70 69 71 66 59 60 60 76 81 76 72 68 65 52 47 48 54 61 57 69 75 81 81 83 83 84 81
52 47 52 53 58 54 55 45 49 56 68 70 68 65 63 72 71 71 67 70 75 69 64 56 60 78 81 85 77 70 61 67 57 50 52 57 65 72 75 77 80 78 79 81 81
47 44 49 64 62 56 50 47 55 67 71 70 58 65 60 65 67 67 68 74 75 77 72 65 58 72 81 79 79 77 74 60 54 49 46 54 58 59 65 71 74 76 76 78 82
43 46 60 65 64 53 45 48 61 72 73 67 65 64 66 66 70 67 71 76 81 80 74 72 61 70 69 68 70 67 63 61 60 54 50 48 54 66 72 73 73 75 80 76 79
41 43 66 69 53 49 47 57 62 69 72 70 72 70 67 71 69 69 70 75 84 84 71 70 60 62 68 76 78 72 68 62 55 53 52 53 56 73 74 74 78 79 79 76 80
38 41 61 63 46 48 55 63 68 67 68 68 70 75 75 70 63 71 72 82 83 83 77 75 58 58 60 64 68 72 69 63 59 55 53 52 56 72 73 71 75 74 75 76 75
40 40 52 55 53 50 50 56 60 72 70 72 72 76 72 68 70 67 70 80 82 84 81 76 58 61 60 60 66 65 71 68 63 54 54 56 61 65 70 72 72 74 75 74 74
42 43 48 43 48 49 47 55 59 61 69 68 67 69 66 60 65 66 70 71 77 77 80 72 60 60 65 74 73 76 75 69 63 65 63 63 64 66 68 71 72 75 76 76 76
42 44 46 44 47 49 50 51 58 62 65 63 62 68 66 59 66 62 63 59 63 70 65 63 61 63 68 72 76 74 74 75 74 71 67 66 64 70 74 74 72 77 75 75 75
46 49 44 43 44 45 48 53 57 62 66 67 65 65 62 68 73 70 69 67 69 63 64 63 60 57 57 67 69 65 70 72 74 72 72 63 69 70 68 72 71 72 75 75 76

GFSSW_sfc_temp_009.txt.gz
Temp
62 62 62 62 62 62 63 63 63 63 63 62 62 62 62 62 61 62 69 82 80 80 83 86 85 87 87 84 86 80 63 62 65 66 68 77 73 79 81 76 80 81 75 77 79
61 61 61 61 62 62 62 62 62 62 62 62 62 62 62 62 58 63 79 80 81 80 85 83 82 84 78 78 80 73 62 68 75 75 72 77 76 76 74 74 74 75 78 79 79
61 61 61 61 61 61 61 62 62 62 62 62 62 62 62 61 62 74 82 81 81 81 88 87 86 83 74 77 78 75 70 77 78 79 81 78 76 78 73 69 73 71 73 77 77
61 60 60 60 61 61 61 61 61 61 61 61 62 62 63 57 64 82 81 79 80 82 86 85 81 75 72 73 79 72 81 81 79 81 78 77 77 74 74 73 80 78 78 77 76
60 60 60 60 60 60 60 60 60 60 60 61 62 63 59 61 70 83 82 80 80 83 83 83 79 76 73 76 79 76 79 82 82 79 78 79 75 75 75 79 81 79 78 76 76
60 59 59 60 60 60 60 59 59 60 60 61 62 63 58 61 83 85 83 79 81 81 81 83 81 82 76 76 74 81 80 80 78 76 77 74 74 74 76 81 79 78 76 77 77
59 59 59 59 60 60 59 59 59 59 60 61 62 64 63 71 85 82 77 75 80 81 80 83 84 78 76 76 81 83 73 77 76 74 74 78 70 69 77 80 76 76 77 77 78
59 59 59 59 59 59 58 58 58 60 62 62 63 59 61 82 80 82 81 80 83 79 80 85 87 80 77 80 81 74 70 66 71 75 78 73 61 72 78 77 75 77 77 77 77
58 58 58 58 58 58 57 57 59 63 63 63 56 56 63 81 78 83 85 83 82 78 79 94 83 76 76 69 64 68 63 61 68 76 75 69 63 73 78 76 74 76 77 78 77
58 58 58 58 57 56 56 57 59 60 62 66 69 60 71 76 81 87 82 86 80 80 80 78 73 68 64 63 56 65 62 65 67 75 73 67 65 72 76 75 74 75 76 77 77
58 57 57 57 56 55 53 52 63 61 60 64 67 71 78 82 85 85 86 82 79 73 68 71 66 61 67 70 71 71 66 67 72 74 69 67 66 71 74 74 73 74 74 76 77
57 57 57 56 55 55 50 59 62 62 56 71 73 75 81 79 75 83 86 76 72 66 67 65 61 71 75 74 73 72 68 66 72 75 70 65 65 73 74 74 75 75 75 76 77
57 57 56 55 54 52 53 60 67 62 54 66 73 74 75 78 73 76 81 75 69 66 65 61 68 76 75 72 71 66 65 66 68 72 71 68 61 66 73 75 77 78 78 79 76
57 56 56 54 54 48 56 62 62 63 51 61 66 74 77 78 71 86 84 78 70 67 67 66 75 75 71 71 72 58 74 75 72 69 57 68 51 60 68 70 74 76 76 78 77
56 56 55 54 46 47 63 59 61 63 41 69 70 81 72 74 75 78 85 76 70 70 67 64 70 69 69 72 76 70 75 73 71 67 60 60 55 58 65 63 70 75 76 78 78
56 55 55 50 46 49 55 55 59 53 43 64 74 69 67 69 74 78 78 79 78 71 67 71 76 74 74 78 79 77 71 65 58 57 51 60 58 54 62 68 72 76 77 79 78
54 53 52 55 47 52 54 59 50 43 64 64 63 68 65 61 71 73 70 68 64 57 55 64 70 73 78 68 72 70 60 50 48 48 48 57 56 60 68 76 77 76 77 79 79
53 52 51 53 52 54 53 53 40 57 57 66 68 69 63 67 65 68 66 64 66 62 56 54 57 69 74 71 66 64 61 51 45 44 52 56 53 64 75 79 81 81 80 80 79
52 45 45 49 53 50 53 42 47 53 64 65 64 60 59 67 67 65 63 66 71 66 59 52 56 71 75 78 74 63 57 64 54 45 48 52 60 70 72 73 78 78 79 78 79
47 42 44 56 56 52 48 44 51 62 67 64 54 60 54 60 61 61 60 68 72 70 69 62 53 66 73 75 74 72 69 56 51 45 43 51 55 58 66 66 72 75 76 78 79
41 42 56 55 54 50 43 46 56 66 68 62 59 58 58 58 61 57 62 71 75 75 72 61 58 60 68 64 65 63 58 55 56 50 47 46 52 63 70 67 70 74 78 79 78
38 41 58 57 47 44 43 50 60 63 66 64 64 62 60 64 61 60 62 67 78 78 66 65 58 59 62 68 71 68 65 63 58 50 47 50 54 70 71 70 74 75 77 74 78
42 36 53 57 42 44 50 57 61 61 63 62 62 66 68 65 56 62 68 78 80 76 70 64 53 50 55 57 62 63 63 58 55 51 49 51 54 69 68 69 71 71 72 73 75
41 36 47 49 47 45 45 50 55 67 64 66 63 66 67 58 67 62 66 75 78 78 76 73 52 60 58 59 63 61 66 63 61 52 51 54 60 63 68 70 69 70 72 72 75
42 39 43 40 45 44 43 49 54 54 63 64 57 63 63 55 60 64 69 68 73 71 68 69 60 56 67 71 67 68 68 65 62 65 63 62 61 66 68 70 71 72 71 71 71
42 39 42 41 44 46 44 47 51 55 56 57 57 65 63 56 64 61 64 59 65 65 60 61 58 59 61 66 70 68 71 70 69 62 63 62 61 68 72 67 68 74 72 71 70
43 44 42 42 43 42 46 49 53 55 58 62 62 60 60 64 69 69 71 70 67 58 59 57 60 53 60 61 65 58 67 68 68 70 68 61 67 66 64 69 70 70 73 73 72

GFSSW_sfc_temp_012.txt.gz
Temp
62 62 62 61 62 62 62 62 63 63 63 63 62 62 62 62 61 62 69 81 79 80 81 78 80 81 82 78 83 77 62 59 63 64 66 74 70 77 78 73 77 77 73 75 76
61 61 61 61 61 62 62 62 62 62 62 62 62 62 62 62 57 61 78 80 80 80 83 80 78 80 73 76 78 70 62 67 72 72 68 73 73 73 71 72 71 71 75 76 76
61 61 61 61 61 61 61 61 61 61 61 61 62 62 62 61 62 73 82 80 80 81 86 84 84 82 73 73 75 71 68 74 75 76 77 74 73 76 71 66 70 67 70 73 73
60 60 60 60 61 61 61 61 61 61 61 61 61 62 62 56 62 77 81 79 80 80 83 82 79 74 71 71 77 70 77 78 77 78 74 72 75 71 72 71 77 75 74 73 72
60 60 60 60 60 60 60 60 60 60 60 61 62 62 57 59 68 82 82 79 77 78 80 79 76 73 71 73 75 72 75 78 79 75 76 77 72 71 73 76 78 76 75 73 73
59 59 59 59 59 60 60 59 59 59 60 61 62 62 55 59 81 81 79 76 77 78 78 81 79 79 75 73 73 77 75 75 75 74 75 72 72 73 73 77 75 74 73 74 74
59 59 59 59 59 59 59 59 59 59 60 62 62 62 59 70 82 78 75 73 77 79 77 80 82 77 76 71 77 78 70 74 73 72 71 77 68 69 75 76 73 73 73 74 75
59 59 59 59 59 58 58 57 58 60 62 62 63 58 59 79 77 78 78 76 78 77 81 81 81 76 73 75 76 69 68 63 68 73 73 72 61 69 75 73 71 73 74 74 74
58 58 58 58 58 57 56 57 59 63 62 63 56 55 61 79 75 79 80 80 78 74 77 91 80 71 72 67 63 64 58 60 65 73 72 67 61 70 75 73 70 72 73 74 74
58 57 57 57 57 56 55 56 58 60 62 65 68 58 68 72 77 82 79 83 77 76 77 73 69 63 62 60 54 58 58 59 62 70 71 65 62 69 73 72 71 72 73 73 73
57 57 57 57 56 55 52 52 60 58 57 64 64 67 74 78 80 80 82 78 76 69 64 67 62 59 64 68 69 67 65 65 67 72 66 63 63 67 71 72 71 71 72 73 74
57 57 56 56 55 55 49 57 58 58 54 65 68 71 77 73 72 78 82 73 68 64 64 62 59 68 72 71 69 68 64 64 68 71 69 62 63 68 70 71 72 72 72 73 75
57 56 56 55 54 52 48 55 61 57 51 62 66 68 69 74 70 74 79 73 68 62 62 58 65 73 72 67 68 63 63 62 68 68 67 65 59 62 68 71 73 74 75 75 75
56 56 55 54 53 46 52 56 57 58 49 58 63 71 71 72 66 81 81 76 68 64 64 63 71 71 68 67 68 58 70 71 67 66 55 65 51 57 65 67 70 73 74 75 75
56 55 55 54 45 45 59 51 55 57 41 66 66 78 69 68 68 72 81 74 66 67 64 62 65 67 65 69 72 68 72 69 67 61 57 57 54 58 64 61 68 72 75 76 77
55 55 54 49 46 48 53 50 55 51 41 61 69 65 64 66 70 73 75 75 75 69 63 67 72 71 72 74 75 74 68 62 56 54 48 57 58 55 56 66 71 74 76 77 78
54 53 52 54 46 49 51 56 47 41 60 60 59 63 62 61 66 69 67 64 61 54 53 61 66 69 74 67 67 66 58 48 46 46 46 55 53 64 66 72 75 75 76 78 79
53 51 49 51 48 50 51 51 38 54 56 62 64 63 59 61 60 67 64 60 61 60 51 52 53 66 71 68 64 62 60 49 44 43 50 53 51 62 77 76 77 77 78 78 78
52 44 43 47 51 48 50 40 44 50 61 61 61 56 54 63 64 62 59 60 65 63 57 50 53 67 71 72 72 59 55 61 50 43 47 50 58 69 72 72 72 74 73 75 77
46 44 42 52 53 48 46 43 49 59 62 60 52 57 51 55 59 57 56 64 66 69 64 59 50 63 69 71 68 67 65 56 48 43 40 48 51 57 63 68 70 69 72 75 77
40 42 53 51 50 47 41 43 53 61 63 60 56 54 53 54 57 55 59 65 70 69 66 60 54 57 63 63 64 59 56 53 53 48 45 44 49 61 67 69 70 71 75 76 77
42 41 53 52 45 39 41 48 56 60 63 61 59 58 57 59 55 56 58 65 73 71 62 62 59 55 59 64 67 66 61 59 55 47 46 48 53 68 70 69 69 72 75 75 76
37 39 48 51 38 40 46 53 57 57 58 58 58 61 60 57 52 57 62 71 73 69 63 61 51 51 51 55 58 60 60 53 53 50 46 49 53 67 65 67 67 69 70 70 71
41 35 42 45 41 40 41 47 51 63 60 62 60 60 56 54 56 56 59 70 73 71 71 69 51 56 55 57 60 57 62 59 58 48 49 51 60 64 68 67 66 67 69 68 71
43 38 40 36 40 40 39 46 50 51 58 59 54 57 55 49 53 54 61 66 70 68 63 63 55 54 66 64 63 64 64 60 58 58 57 62 59 68 68 68 68 71 68 68 68
41 39 42 38 41 42 40 42 48 52 52 53 53 60 56 52 56 56 60 60 60 61 58 57 55 54 62 67 66 65 67 63 62 62 59 60 59 67 69 67 68 68 69 69 70
42 44 42 41 39 38 42 44 48 51 55 58 57 52 53 58 60 62 62 66 62 59 55 54 53 49 54 59 57 53 66 65 64 64 67 59 71 66 65 67 68 67 69 72 72